Year,Month,Day,Hour,Minute,Value (Times are PST for temperature in C)
2015,02,22,00,00,5.70
2015,02,22,00,01,5.80
2015,02,22,00,02,5.90
2015,02,22,00,03,6.00
2015,02,22,00,04,6.00
2015,02,22,00,05,6.00
2015,02,22,00,06,6.00
2015,02,22,00,07,6.00
2015,02,22,00,08,6.00
2015,02,22,00,09,6.00
2015,02,22,00,10,6.00
2015,02,22,00,11,6.10
2015,02,22,00,12,6.10
2015,02,22,00,13,6.20
2015,02,22,00,14,6.20
2015,02,22,00,15,6.20
2015,02,22,00,16,6.30
2015,02,22,00,17,6.40
2015,02,22,00,18,6.60
2015,02,22,00,19,6.60
2015,02,22,00,20,6.70
2015,02,22,00,21,6.70
2015,02,22,00,22,6.70
2015,02,22,00,23,6.70
2015,02,22,00,24,6.70
2015,02,22,00,25,6.70
2015,02,22,00,26,6.80
2015,02,22,00,27,6.80
2015,02,22,00,28,6.80
2015,02,22,00,29,6.80
2015,02,22,00,30,6.80
2015,02,22,00,31,6.80
2015,02,22,00,32,6.80
2015,02,22,00,33,6.80
2015,02,22,00,34,6.80
2015,02,22,00,35,6.90
2015,02,22,00,36,6.90
2015,02,22,00,37,7.00
2015,02,22,00,38,7.00
2015,02,22,00,39,7.00
2015,02,22,00,40,7.10
2015,02,22,00,41,7.10
2015,02,22,00,42,7.20
2015,02,22,00,43,7.20
2015,02,22,00,44,7.20
2015,02,22,00,45,7.20
2015,02,22,00,46,7.20
2015,02,22,00,47,7.20
2015,02,22,00,48,7.10
2015,02,22,00,49,7.00
2015,02,22,00,50,6.90
2015,02,22,00,51,6.80
2015,02,22,00,52,6.70
2015,02,22,00,53,6.60
2015,02,22,00,54,6.50
2015,02,22,00,55,6.40
2015,02,22,00,56,6.40
2015,02,22,00,57,6.40
2015,02,22,00,58,6.30
2015,02,22,00,59,6.30
2015,02,22,01,00,6.30
2015,02,22,01,01,6.30
2015,02,22,01,02,6.30
2015,02,22,01,03,6.30
2015,02,22,01,04,6.30
2015,02,22,01,05,6.30
2015,02,22,01,06,6.30
2015,02,22,01,07,6.30
2015,02,22,01,08,6.30
2015,02,22,01,09,6.30
2015,02,22,01,10,6.30
2015,02,22,01,11,6.30
2015,02,22,01,12,6.30
2015,02,22,01,13,6.20
2015,02,22,01,14,6.20
2015,02,22,01,15,6.20
2015,02,22,01,16,6.30
2015,02,22,01,17,6.30
2015,02,22,01,18,6.30
2015,02,22,01,19,6.30
2015,02,22,01,20,6.30
2015,02,22,01,21,6.20
2015,02,22,01,22,6.20
2015,02,22,01,23,6.20
2015,02,22,01,24,6.20
2015,02,22,01,25,6.20
2015,02,22,01,26,6.20
2015,02,22,01,27,6.20
2015,02,22,01,28,6.20
2015,02,22,01,29,6.20
2015,02,22,01,30,6.20
2015,02,22,01,31,6.10
2015,02,22,01,32,6.10
2015,02,22,01,33,6.10
2015,02,22,01,34,6.20
2015,02,22,01,35,6.20
2015,02,22,01,36,6.20
2015,02,22,01,37,6.20
2015,02,22,01,38,6.20
2015,02,22,01,39,6.20
2015,02,22,01,40,6.20
2015,02,22,01,41,6.20
2015,02,22,01,42,6.20
2015,02,22,01,43,6.20
2015,02,22,01,44,6.20
2015,02,22,01,45,6.10
2015,02,22,01,46,6.00
2015,02,22,01,47,6.00
2015,02,22,01,48,5.90
2015,02,22,01,49,5.90
2015,02,22,01,50,5.90
2015,02,22,01,51,5.90
2015,02,22,01,52,5.90
2015,02,22,01,53,5.90
2015,02,22,01,54,5.90
2015,02,22,01,55,5.90
2015,02,22,01,56,5.90
2015,02,22,01,57,5.90
2015,02,22,01,58,5.80
2015,02,22,01,59,5.80
2015,02,22,02,00,5.90
2015,02,22,02,01,5.90
2015,02,22,02,02,5.90
2015,02,22,02,03,5.80
2015,02,22,02,04,5.80
2015,02,22,02,05,5.80
2015,02,22,02,06,5.80
2015,02,22,02,07,5.90
2015,02,22,02,08,5.90
2015,02,22,02,09,6.00
2015,02,22,02,10,6.00
2015,02,22,02,11,5.90
2015,02,22,02,12,5.90
2015,02,22,02,13,5.80
2015,02,22,02,14,5.70
2015,02,22,02,15,5.70
2015,02,22,02,16,5.70
2015,02,22,02,17,5.60
2015,02,22,02,18,5.60
2015,02,22,02,19,5.50
2015,02,22,02,20,5.50
2015,02,22,02,21,5.40
2015,02,22,02,22,5.40
2015,02,22,02,23,5.30
2015,02,22,02,24,5.30
2015,02,22,02,25,5.20
2015,02,22,02,26,5.10
2015,02,22,02,27,5.10
2015,02,22,02,28,5.00
2015,02,22,02,29,4.90
2015,02,22,02,30,4.80
2015,02,22,02,31,4.70
2015,02,22,02,32,4.60
2015,02,22,02,33,4.60
2015,02,22,02,34,4.50
2015,02,22,02,35,4.50
2015,02,22,02,36,4.50
2015,02,22,02,37,4.60
2015,02,22,02,38,4.60
2015,02,22,02,39,4.70
2015,02,22,02,40,4.80
2015,02,22,02,41,4.90
2015,02,22,02,42,5.00
2015,02,22,02,43,5.10
2015,02,22,02,44,5.10
2015,02,22,02,45,5.20
2015,02,22,02,46,5.30
2015,02,22,02,47,5.30
2015,02,22,02,48,5.30
2015,02,22,02,49,5.40
2015,02,22,02,50,5.50
2015,02,22,02,51,5.50
2015,02,22,02,52,5.70
2015,02,22,02,53,5.70
2015,02,22,02,54,5.80
2015,02,22,02,55,5.80
2015,02,22,02,56,5.80
2015,02,22,02,57,5.80
2015,02,22,02,58,5.80
2015,02,22,02,59,5.80
2015,02,22,03,00,5.80
2015,02,22,03,01,5.70
2015,02,22,03,02,5.70
2015,02,22,03,03,5.70
2015,02,22,03,04,5.60
2015,02,22,03,05,5.60
2015,02,22,03,06,5.50
2015,02,22,03,07,5.50
2015,02,22,03,08,5.40
2015,02,22,03,09,5.40
2015,02,22,03,10,5.30
2015,02,22,03,11,5.30
2015,02,22,03,12,5.30
2015,02,22,03,13,5.30
2015,02,22,03,14,5.20
2015,02,22,03,15,5.20
2015,02,22,03,16,5.20
2015,02,22,03,17,5.20
2015,02,22,03,18,5.20
2015,02,22,03,19,5.10
2015,02,22,03,20,5.10
2015,02,22,03,21,5.10
2015,02,22,03,22,5.10
2015,02,22,03,23,5.20
2015,02,22,03,24,5.30
2015,02,22,03,25,5.30
2015,02,22,03,26,5.30
2015,02,22,03,27,5.30
2015,02,22,03,28,5.30
2015,02,22,03,29,5.40
2015,02,22,03,30,5.40
2015,02,22,03,31,5.40
2015,02,22,03,32,5.40
2015,02,22,03,33,5.40
2015,02,22,03,34,5.40
2015,02,22,03,35,5.40
2015,02,22,03,36,5.40
2015,02,22,03,37,5.30
2015,02,22,03,38,5.20
2015,02,22,03,39,5.10
2015,02,22,03,40,4.90
2015,02,22,03,41,4.70
2015,02,22,03,42,4.50
2015,02,22,03,43,4.30
2015,02,22,03,44,4.10
2015,02,22,03,45,4.00
2015,02,22,03,46,3.90
2015,02,22,03,47,3.80
2015,02,22,03,48,3.80
2015,02,22,03,49,3.80
2015,02,22,03,50,3.80
2015,02,22,03,51,3.80
2015,02,22,03,52,3.80
2015,02,22,03,53,3.90
2015,02,22,03,54,4.00
2015,02,22,03,55,4.10
2015,02,22,03,56,4.30
2015,02,22,03,57,4.40
2015,02,22,03,58,4.50
2015,02,22,03,59,4.60
2015,02,22,04,00,4.60
2015,02,22,04,01,4.60
2015,02,22,04,02,4.60
2015,02,22,04,03,4.60
2015,02,22,04,04,4.50
2015,02,22,04,05,4.50
2015,02,22,04,06,4.50
2015,02,22,04,07,4.50
2015,02,22,04,08,4.50
2015,02,22,04,09,4.60
2015,02,22,04,10,4.60
2015,02,22,04,11,4.60
2015,02,22,04,12,4.70
2015,02,22,04,13,4.70
2015,02,22,04,14,4.80
2015,02,22,04,15,4.90
2015,02,22,04,16,4.90
2015,02,22,04,17,4.90
2015,02,22,04,18,4.90
2015,02,22,04,19,4.90
2015,02,22,04,20,4.90
2015,02,22,04,21,4.90
2015,02,22,04,22,5.00
2015,02,22,04,23,5.10
2015,02,22,04,24,5.10
2015,02,22,04,25,5.10
2015,02,22,04,26,5.10
2015,02,22,04,27,5.00
2015,02,22,04,28,4.90
2015,02,22,04,29,4.80
2015,02,22,04,30,4.80
2015,02,22,04,31,4.70
2015,02,22,04,32,4.60
2015,02,22,04,33,4.60
2015,02,22,04,34,4.60
2015,02,22,04,35,4.50
2015,02,22,04,36,4.50
2015,02,22,04,37,4.40
2015,02,22,04,38,4.30
2015,02,22,04,39,4.20
2015,02,22,04,40,4.10
2015,02,22,04,41,4.00
2015,02,22,04,42,4.00
2015,02,22,04,43,3.90
2015,02,22,04,44,3.80
2015,02,22,04,45,3.80
2015,02,22,04,46,3.90
2015,02,22,04,47,3.90
2015,02,22,04,48,4.00
2015,02,22,04,49,4.00
2015,02,22,04,50,4.00
2015,02,22,04,51,4.10
2015,02,22,04,52,4.10
2015,02,22,04,53,4.20
2015,02,22,04,54,4.20
2015,02,22,04,55,4.20
2015,02,22,04,56,4.20
2015,02,22,04,57,4.20
2015,02,22,04,58,4.20
2015,02,22,04,59,4.20
2015,02,22,05,00,4.20
2015,02,22,05,01,4.20
2015,02,22,05,02,4.20
2015,02,22,05,03,4.20
2015,02,22,05,04,4.20
2015,02,22,05,05,4.20
2015,02,22,05,06,4.20
2015,02,22,05,07,4.20
2015,02,22,05,08,4.20
2015,02,22,05,09,4.30
2015,02,22,05,10,4.30
2015,02,22,05,11,4.30
2015,02,22,05,12,4.40
2015,02,22,05,13,4.40
2015,02,22,05,14,4.40
2015,02,22,05,15,4.40
2015,02,22,05,16,4.30
2015,02,22,05,17,4.20
2015,02,22,05,18,4.20
2015,02,22,05,19,4.10
2015,02,22,05,20,4.00
2015,02,22,05,21,4.00
2015,02,22,05,22,3.80
2015,02,22,05,23,3.80
2015,02,22,05,24,3.70
2015,02,22,05,25,3.60
2015,02,22,05,26,3.60
2015,02,22,05,27,3.50
2015,02,22,05,28,3.50
2015,02,22,05,29,3.50
2015,02,22,05,30,3.50
2015,02,22,05,31,3.50
2015,02,22,05,32,3.50
2015,02,22,05,33,3.50
2015,02,22,05,34,3.50
2015,02,22,05,35,3.50
2015,02,22,05,36,3.50
2015,02,22,05,37,3.50
2015,02,22,05,38,3.50
2015,02,22,05,39,3.50
2015,02,22,05,40,3.50
2015,02,22,05,41,3.60
2015,02,22,05,42,3.60
2015,02,22,05,43,3.70
2015,02,22,05,44,3.70
2015,02,22,05,45,3.80
2015,02,22,05,46,3.80
2015,02,22,05,47,3.80
2015,02,22,05,48,3.90
2015,02,22,05,49,4.00
2015,02,22,05,50,4.00
2015,02,22,05,51,4.00
2015,02,22,05,52,4.10
2015,02,22,05,53,4.10
2015,02,22,05,54,4.20
2015,02,22,05,55,4.20
2015,02,22,05,56,4.20
2015,02,22,05,57,4.30
2015,02,22,05,58,4.30
2015,02,22,05,59,4.30
2015,02,22,06,00,4.40
2015,02,22,06,01,4.40
2015,02,22,06,02,4.30
2015,02,22,06,03,4.20
2015,02,22,06,04,4.20
2015,02,22,06,05,4.10
2015,02,22,06,06,4.00
2015,02,22,06,07,4.00
2015,02,22,06,08,3.90
2015,02,22,06,09,3.80
2015,02,22,06,10,3.80
2015,02,22,06,11,3.80
2015,02,22,06,12,3.80
2015,02,22,06,13,3.80
2015,02,22,06,14,3.80
2015,02,22,06,15,3.90
2015,02,22,06,16,3.90
2015,02,22,06,17,3.90
2015,02,22,06,18,4.00
2015,02,22,06,19,4.00
2015,02,22,06,20,4.10
2015,02,22,06,21,4.10
2015,02,22,06,22,4.10
2015,02,22,06,23,4.20
2015,02,22,06,24,4.20
2015,02,22,06,25,4.20
2015,02,22,06,26,4.20
2015,02,22,06,27,4.20
2015,02,22,06,28,4.20
2015,02,22,06,29,4.20
2015,02,22,06,30,4.20
2015,02,22,06,31,4.20
2015,02,22,06,32,4.10
2015,02,22,06,33,4.10
2015,02,22,06,34,4.00
2015,02,22,06,35,4.00
2015,02,22,06,36,3.90
2015,02,22,06,37,3.90
2015,02,22,06,38,3.80
2015,02,22,06,39,3.80
2015,02,22,06,40,3.80
2015,02,22,06,41,3.80
2015,02,22,06,42,3.80
2015,02,22,06,43,3.80
2015,02,22,06,44,3.80
2015,02,22,06,45,3.80
2015,02,22,06,46,3.80
2015,02,22,06,47,3.80
2015,02,22,06,48,3.90
2015,02,22,06,49,3.90
2015,02,22,06,50,3.90
2015,02,22,06,51,3.90
2015,02,22,06,52,4.00
2015,02,22,06,53,4.00
2015,02,22,06,54,4.00
2015,02,22,06,55,4.00
2015,02,22,06,56,3.90
2015,02,22,06,57,3.90
2015,02,22,06,58,3.80
2015,02,22,06,59,3.80
2015,02,22,07,00,3.80
2015,02,22,07,01,3.60
2015,02,22,07,02,3.50
2015,02,22,07,03,3.40
2015,02,22,07,04,3.30
2015,02,22,07,05,3.30
2015,02,22,07,06,3.30
2015,02,22,07,07,3.30
2015,02,22,07,08,3.30
2015,02,22,07,09,3.30
2015,02,22,07,10,3.30
2015,02,22,07,11,3.30
2015,02,22,07,12,3.30
2015,02,22,07,13,3.30
2015,02,22,07,14,3.30
2015,02,22,07,15,3.30
2015,02,22,07,16,3.30
2015,02,22,07,17,3.30
2015,02,22,07,18,3.30
2015,02,22,07,19,3.40
2015,02,22,07,20,3.50
2015,02,22,07,21,3.60
2015,02,22,07,22,3.60
2015,02,22,07,23,3.70
2015,02,22,07,24,3.70
2015,02,22,07,25,3.80
2015,02,22,07,26,3.80
2015,02,22,07,27,3.80
2015,02,22,07,28,3.80
2015,02,22,07,29,3.80
2015,02,22,07,30,3.70
2015,02,22,07,31,3.70
2015,02,22,07,32,3.70
2015,02,22,07,33,3.60
2015,02,22,07,34,3.60
2015,02,22,07,35,3.60
2015,02,22,07,36,3.60
2015,02,22,07,37,3.60
2015,02,22,07,38,3.60
2015,02,22,07,39,3.70
2015,02,22,07,40,3.70
2015,02,22,07,41,3.80
2015,02,22,07,42,3.80
2015,02,22,07,43,3.90
2015,02,22,07,44,4.00
2015,02,22,07,45,4.10
2015,02,22,07,46,4.20
2015,02,22,07,47,4.20
2015,02,22,07,48,4.20
2015,02,22,07,49,4.20
2015,02,22,07,50,4.20
2015,02,22,07,51,4.30
2015,02,22,07,52,4.30
2015,02,22,07,53,4.30
2015,02,22,07,54,4.30
2015,02,22,07,55,4.30
2015,02,22,07,56,4.20
2015,02,22,07,57,4.20
2015,02,22,07,58,4.20
2015,02,22,07,59,4.20
2015,02,22,08,00,4.20
2015,02,22,08,01,4.10
2015,02,22,08,02,4.10
2015,02,22,08,03,4.10
2015,02,22,08,04,4.10
2015,02,22,08,05,4.10
2015,02,22,08,06,4.20
2015,02,22,08,07,4.20
2015,02,22,08,08,4.30
2015,02,22,08,09,4.40
2015,02,22,08,10,4.50
2015,02,22,08,11,4.50
2015,02,22,08,12,4.60
2015,02,22,08,13,4.70
2015,02,22,08,14,4.80
2015,02,22,08,15,4.90
2015,02,22,08,16,4.90
2015,02,22,08,17,4.90
2015,02,22,08,18,5.10
2015,02,22,08,19,5.10
2015,02,22,08,20,5.10
2015,02,22,08,21,5.20
2015,02,22,08,22,5.30
2015,02,22,08,23,5.30
2015,02,22,08,24,5.30
2015,02,22,08,25,5.30
2015,02,22,08,26,5.40
2015,02,22,08,27,5.40
2015,02,22,08,28,5.40
2015,02,22,08,29,5.50
2015,02,22,08,30,5.50
2015,02,22,08,31,5.50
2015,02,22,08,32,5.50
2015,02,22,08,33,5.60
2015,02,22,08,34,5.60
2015,02,22,08,35,5.60
2015,02,22,08,36,5.70
2015,02,22,08,37,5.70
2015,02,22,08,38,5.80
2015,02,22,08,39,5.80
2015,02,22,08,40,5.90
2015,02,22,08,41,6.00
2015,02,22,08,42,6.00
2015,02,22,08,43,6.10
2015,02,22,08,44,6.10
2015,02,22,08,45,6.10
2015,02,22,08,46,6.20
2015,02,22,08,47,6.20
2015,02,22,08,48,6.20
2015,02,22,08,49,6.30
2015,02,22,08,50,6.40
2015,02,22,08,51,6.40
2015,02,22,08,52,6.40
2015,02,22,08,53,6.50
2015,02,22,08,54,6.60
2015,02,22,08,55,6.60
2015,02,22,08,56,6.70
2015,02,22,08,57,6.70
2015,02,22,08,58,6.80
2015,02,22,08,59,6.80
2015,02,22,09,00,6.90
2015,02,22,09,01,6.90
2015,02,22,09,02,7.00
2015,02,22,09,03,7.00
2015,02,22,09,04,7.10
2015,02,22,09,05,7.10
2015,02,22,09,06,7.20
2015,02,22,09,07,7.30
2015,02,22,09,08,7.30
2015,02,22,09,09,7.30
2015,02,22,09,10,7.40
2015,02,22,09,11,7.40
2015,02,22,09,12,7.40
2015,02,22,09,13,7.50
2015,02,22,09,14,7.50
2015,02,22,09,15,7.60
2015,02,22,09,16,7.60
2015,02,22,09,17,7.60
2015,02,22,09,18,7.70
2015,02,22,09,19,7.70
2015,02,22,09,20,7.80
2015,02,22,09,21,7.80
2015,02,22,09,22,7.80
2015,02,22,09,23,7.80
2015,02,22,09,24,7.80
2015,02,22,09,25,7.80
2015,02,22,09,26,7.80
2015,02,22,09,27,7.90
2015,02,22,09,28,7.90
2015,02,22,09,29,8.00
2015,02,22,09,30,8.00
2015,02,22,09,31,8.10
2015,02,22,09,32,8.10
2015,02,22,09,33,8.10
2015,02,22,09,34,8.20
2015,02,22,09,35,8.20
2015,02,22,09,36,8.10
2015,02,22,09,37,8.10
2015,02,22,09,38,8.10
2015,02,22,09,39,8.00
2015,02,22,09,40,8.00
2015,02,22,09,41,8.00
2015,02,22,09,42,7.90
2015,02,22,09,43,7.90
2015,02,22,09,44,7.90
2015,02,22,09,45,8.00
2015,02,22,09,46,8.00
2015,02,22,09,47,8.00
2015,02,22,09,48,8.10
2015,02,22,09,49,8.10
2015,02,22,09,50,8.10
2015,02,22,09,51,8.10
2015,02,22,09,52,8.10
2015,02,22,09,53,8.20
2015,02,22,09,54,8.20
2015,02,22,09,55,8.20
2015,02,22,09,56,8.20
2015,02,22,09,57,8.20
2015,02,22,09,58,8.20
2015,02,22,09,59,8.20
2015,02,22,10,00,8.20
2015,02,22,10,01,8.20
2015,02,22,10,02,8.30
2015,02,22,10,03,8.30
2015,02,22,10,04,8.30
2015,02,22,10,05,8.30
2015,02,22,10,06,8.30
2015,02,22,10,07,8.30
2015,02,22,10,08,8.30
2015,02,22,10,09,8.40
2015,02,22,10,10,8.50
2015,02,22,10,11,8.50
2015,02,22,10,12,8.50
2015,02,22,10,13,8.50
2015,02,22,10,14,8.50
2015,02,22,10,15,8.50
2015,02,22,10,16,8.50
2015,02,22,10,17,8.50
2015,02,22,10,18,8.50
2015,02,22,10,19,8.50
2015,02,22,10,20,8.50
2015,02,22,10,21,8.50
2015,02,22,10,22,8.50
2015,02,22,10,23,8.50
2015,02,22,10,24,8.40
2015,02,22,10,25,8.40
2015,02,22,10,26,8.30
2015,02,22,10,27,8.30
2015,02,22,10,28,8.30
2015,02,22,10,29,8.30
2015,02,22,10,30,8.30
2015,02,22,10,31,8.20
2015,02,22,10,32,8.20
2015,02,22,10,33,8.20
2015,02,22,10,34,8.20
2015,02,22,10,35,8.30
2015,02,22,10,36,8.30
2015,02,22,10,37,8.30
2015,02,22,10,38,8.30
2015,02,22,10,39,8.30
2015,02,22,10,40,8.40
2015,02,22,10,41,8.40
2015,02,22,10,42,8.40
2015,02,22,10,43,8.40
2015,02,22,10,44,8.40
2015,02,22,10,45,8.50
2015,02,22,10,46,8.50
2015,02,22,10,47,8.60
2015,02,22,10,48,8.60
2015,02,22,10,49,8.60
2015,02,22,10,50,8.60
2015,02,22,10,51,8.60
2015,02,22,10,52,8.70
2015,02,22,10,53,8.70
2015,02,22,10,54,8.70
2015,02,22,10,55,8.70
2015,02,22,10,56,8.70
2015,02,22,10,57,8.70
2015,02,22,10,58,8.80
2015,02,22,10,59,8.90
2015,02,22,11,00,8.90
2015,02,22,11,01,8.90
2015,02,22,11,02,8.80
2015,02,22,11,03,8.80
2015,02,22,11,04,8.70
2015,02,22,11,05,8.80
2015,02,22,11,06,8.90
2015,02,22,11,07,8.90
2015,02,22,11,08,9.00
2015,02,22,11,09,9.10
2015,02,22,11,10,9.20
2015,02,22,11,11,9.30
2015,02,22,11,12,9.40
2015,02,22,11,13,9.50
2015,02,22,11,14,9.50
2015,02,22,11,15,9.60
2015,02,22,11,16,9.60
2015,02,22,11,17,9.50
2015,02,22,11,18,9.50
2015,02,22,11,19,9.50
2015,02,22,11,20,9.40
2015,02,22,11,21,9.50
2015,02,22,11,22,9.50
2015,02,22,11,23,9.60
2015,02,22,11,24,9.70
2015,02,22,11,25,9.70
2015,02,22,11,26,9.70
2015,02,22,11,27,9.70
2015,02,22,11,28,9.70
2015,02,22,11,29,9.70
2015,02,22,11,30,9.60
2015,02,22,11,31,9.60
2015,02,22,11,32,9.50
2015,02,22,11,33,9.50
2015,02,22,11,34,9.60
2015,02,22,11,35,9.60
2015,02,22,11,36,9.70
2015,02,22,11,37,9.70
2015,02,22,11,38,9.70
2015,02,22,11,39,9.70
2015,02,22,11,40,9.70
2015,02,22,11,41,9.70
2015,02,22,11,42,9.70
2015,02,22,11,43,9.60
2015,02,22,11,44,9.60
2015,02,22,11,45,9.50
2015,02,22,11,46,9.50
2015,02,22,11,47,9.60
2015,02,22,11,48,9.70
2015,02,22,11,49,9.80
2015,02,22,11,50,9.90
2015,02,22,11,51,9.90
2015,02,22,11,52,9.90
2015,02,22,11,53,9.90
2015,02,22,11,54,9.90
2015,02,22,11,55,9.90
2015,02,22,11,56,9.90
2015,02,22,11,57,9.90
2015,02,22,11,58,9.90
2015,02,22,11,59,9.90
2015,02,22,12,00,9.90
2015,02,22,12,01,10.00
2015,02,22,12,02,10.10
2015,02,22,12,03,10.20
2015,02,22,12,04,10.30
2015,02,22,12,05,10.40
2015,02,22,12,06,10.50
2015,02,22,12,07,10.60
2015,02,22,12,08,10.60
2015,02,22,12,09,10.70
2015,02,22,12,10,10.70
2015,02,22,12,11,10.70
2015,02,22,12,12,10.70
2015,02,22,12,13,10.70
2015,02,22,12,14,10.70
2015,02,22,12,15,10.60
2015,02,22,12,16,10.60
2015,02,22,12,17,10.60
2015,02,22,12,18,10.60
2015,02,22,12,19,10.60
2015,02,22,12,20,10.60
2015,02,22,12,21,10.40
2015,02,22,12,22,10.40
2015,02,22,12,23,10.40
2015,02,22,12,24,10.40
2015,02,22,12,25,10.40
2015,02,22,12,26,10.40
2015,02,22,12,27,10.50
2015,02,22,12,28,10.60
2015,02,22,12,29,10.50
2015,02,22,12,30,10.40
2015,02,22,12,31,10.30
2015,02,22,12,32,10.20
2015,02,22,12,33,10.10
2015,02,22,12,34,10.00
2015,02,22,12,35,9.90
2015,02,22,12,36,9.90
2015,02,22,12,37,9.90
2015,02,22,12,38,9.90
2015,02,22,12,39,9.90
2015,02,22,12,40,9.90
2015,02,22,12,41,9.90
2015,02,22,12,42,9.90
2015,02,22,12,43,10.00
2015,02,22,12,44,10.10
2015,02,22,12,45,10.10
2015,02,22,12,46,10.10
2015,02,22,12,47,10.10
2015,02,22,12,48,10.10
2015,02,22,12,49,10.10
2015,02,22,12,50,10.10
2015,02,22,12,51,10.10
2015,02,22,12,52,10.10
2015,02,22,12,53,10.10
2015,02,22,12,54,10.10
2015,02,22,12,55,10.10
2015,02,22,12,56,10.00
2015,02,22,12,57,9.90
2015,02,22,12,58,9.90
2015,02,22,12,59,9.90
2015,02,22,13,00,9.90
2015,02,22,13,01,9.90
2015,02,22,13,02,9.90
2015,02,22,13,03,9.90
2015,02,22,13,04,9.90
2015,02,22,13,05,10.10
2015,02,22,13,06,10.10
2015,02,22,13,07,10.10
2015,02,22,13,08,10.10
2015,02,22,13,09,10.10
2015,02,22,13,10,10.10
2015,02,22,13,11,10.10
2015,02,22,13,12,10.00
2015,02,22,13,13,9.90
2015,02,22,13,14,9.90
2015,02,22,13,15,9.90
2015,02,22,13,16,9.90
2015,02,22,13,17,9.90
2015,02,22,13,18,9.90
2015,02,22,13,19,9.90
2015,02,22,13,20,9.80
2015,02,22,13,21,9.80
2015,02,22,13,22,9.80
2015,02,22,13,23,9.80
2015,02,22,13,24,9.80
2015,02,22,13,25,9.80
2015,02,22,13,26,9.80
2015,02,22,13,27,9.80
2015,02,22,13,28,9.80
2015,02,22,13,29,9.80
2015,02,22,13,30,9.90
2015,02,22,13,31,9.90
2015,02,22,13,32,9.90
2015,02,22,13,33,9.90
2015,02,22,13,34,9.90
2015,02,22,13,35,9.90
2015,02,22,13,36,9.90
2015,02,22,13,37,9.90
2015,02,22,13,38,9.90
2015,02,22,13,39,9.90
2015,02,22,13,40,9.90
2015,02,22,13,41,9.90
2015,02,22,13,42,9.90
2015,02,22,13,43,9.90
2015,02,22,13,44,9.90
2015,02,22,13,45,9.90
2015,02,22,13,46,9.90
2015,02,22,13,47,9.90
2015,02,22,13,48,9.90
2015,02,22,13,49,9.90
2015,02,22,13,50,9.90
2015,02,22,13,51,9.90
2015,02,22,13,52,9.90
2015,02,22,13,53,9.90
2015,02,22,13,54,9.90
2015,02,22,13,55,9.90
2015,02,22,13,56,9.90
2015,02,22,13,57,10.00
2015,02,22,13,58,10.10
2015,02,22,13,59,10.10
2015,02,22,14,00,10.10
2015,02,22,14,01,10.10
2015,02,22,14,02,10.10
2015,02,22,14,03,10.00
2015,02,22,14,04,9.90
2015,02,22,14,05,9.90
2015,02,22,14,06,9.90
2015,02,22,14,07,9.90
2015,02,22,14,08,9.90
2015,02,22,14,09,9.80
2015,02,22,14,10,9.80
2015,02,22,14,11,9.80
2015,02,22,14,12,9.80
2015,02,22,14,13,9.80
2015,02,22,14,14,9.90
2015,02,22,14,15,9.90
2015,02,22,14,16,9.90
2015,02,22,14,17,10.00
2015,02,22,14,18,10.10
2015,02,22,14,19,10.10
2015,02,22,14,20,10.10
2015,02,22,14,21,10.10
2015,02,22,14,22,10.10
2015,02,22,14,23,10.10
2015,02,22,14,24,10.10
2015,02,22,14,25,9.90
2015,02,22,14,26,9.90
2015,02,22,14,27,9.90
2015,02,22,14,28,9.90
2015,02,22,14,29,9.90
2015,02,22,14,30,9.90
2015,02,22,14,31,9.90
2015,02,22,14,32,9.90
2015,02,22,14,33,9.90
2015,02,22,14,34,9.90
2015,02,22,14,35,9.80
2015,02,22,14,36,9.80
2015,02,22,14,37,9.80
2015,02,22,14,38,9.80
2015,02,22,14,39,9.90
2015,02,22,14,40,9.90
2015,02,22,14,41,9.90
2015,02,22,14,42,10.00
2015,02,22,14,43,10.10
2015,02,22,14,44,10.20
2015,02,22,14,45,10.20
2015,02,22,14,46,10.30
2015,02,22,14,47,10.30
2015,02,22,14,48,10.40
2015,02,22,14,49,10.40
2015,02,22,14,50,10.40
2015,02,22,14,51,10.40
2015,02,22,14,52,10.40
2015,02,22,14,53,10.50
2015,02,22,14,54,10.60
2015,02,22,14,55,10.60
2015,02,22,14,56,10.60
2015,02,22,14,57,10.60
2015,02,22,14,58,10.60
2015,02,22,14,59,10.70
2015,02,22,15,00,10.80
2015,02,22,15,01,10.70
2015,02,22,15,02,10.70
2015,02,22,15,03,10.70
2015,02,22,15,04,10.70
2015,02,22,15,05,10.70
2015,02,22,15,06,10.70
2015,02,22,15,07,10.70
2015,02,22,15,08,10.70
2015,02,22,15,09,10.70
2015,02,22,15,10,10.70
2015,02,22,15,11,10.70
2015,02,22,15,12,10.60
2015,02,22,15,13,10.60
2015,02,22,15,14,10.60
2015,02,22,15,15,10.60
2015,02,22,15,16,10.50
2015,02,22,15,17,10.40
2015,02,22,15,18,10.40
2015,02,22,15,19,10.40
2015,02,22,15,20,10.40
2015,02,22,15,21,10.50
2015,02,22,15,22,10.60
2015,02,22,15,23,10.60
2015,02,22,15,24,10.60
2015,02,22,15,25,10.60
2015,02,22,15,26,10.60
2015,02,22,15,27,10.50
2015,02,22,15,28,10.40
2015,02,22,15,29,10.40
2015,02,22,15,30,10.40
2015,02,22,15,31,10.40
2015,02,22,15,32,10.40
2015,02,22,15,33,10.40
2015,02,22,15,34,10.40
2015,02,22,15,35,10.40
2015,02,22,15,36,10.40
2015,02,22,15,37,10.40
2015,02,22,15,38,10.40
2015,02,22,15,39,10.40
2015,02,22,15,40,10.40
2015,02,22,15,41,10.40
2015,02,22,15,42,10.40
2015,02,22,15,43,10.40
2015,02,22,15,44,10.40
2015,02,22,15,45,10.40
2015,02,22,15,46,10.40
2015,02,22,15,47,10.60
2015,02,22,15,48,10.60
2015,02,22,15,49,10.60
2015,02,22,15,50,10.60
2015,02,22,15,51,10.60
2015,02,22,15,52,10.60
2015,02,22,15,53,10.60
2015,02,22,15,54,10.60
2015,02,22,15,55,10.70
2015,02,22,15,56,10.70
2015,02,22,15,57,10.70
2015,02,22,15,58,10.70
2015,02,22,15,59,10.70
2015,02,22,16,00,10.60
2015,02,22,16,01,10.60
2015,02,22,16,02,10.60
2015,02,22,16,03,10.60
2015,02,22,16,04,10.70
2015,02,22,16,05,10.70
2015,02,22,16,06,10.80
2015,02,22,16,07,10.80
2015,02,22,16,08,10.90
2015,02,22,16,09,10.90
2015,02,22,16,10,10.90
2015,02,22,16,11,10.80
2015,02,22,16,12,10.70
2015,02,22,16,13,10.70
2015,02,22,16,14,10.60
2015,02,22,16,15,10.60
2015,02,22,16,16,10.60
2015,02,22,16,17,10.60
2015,02,22,16,18,10.50
2015,02,22,16,19,10.40
2015,02,22,16,20,10.40
2015,02,22,16,21,10.40
2015,02,22,16,22,10.40
2015,02,22,16,23,10.40
2015,02,22,16,24,10.50
2015,02,22,16,25,10.60
2015,02,22,16,26,10.60
2015,02,22,16,27,10.60
2015,02,22,16,28,10.60
2015,02,22,16,29,10.60
2015,02,22,16,30,10.60
2015,02,22,16,31,10.60
2015,02,22,16,32,10.60
2015,02,22,16,33,10.60
2015,02,22,16,34,10.60
2015,02,22,16,35,10.60
2015,02,22,16,36,10.60
2015,02,22,16,37,10.60
2015,02,22,16,38,10.60
2015,02,22,16,39,10.60
2015,02,22,16,40,10.60
2015,02,22,16,41,10.60
2015,02,22,16,42,10.50
2015,02,22,16,43,10.40
2015,02,22,16,44,10.40
2015,02,22,16,45,10.40
2015,02,22,16,46,10.40
2015,02,22,16,47,10.40
2015,02,22,16,48,10.40
2015,02,22,16,49,10.40
2015,02,22,16,50,10.40
2015,02,22,16,51,10.40
2015,02,22,16,52,10.40
2015,02,22,16,53,10.30
2015,02,22,16,54,10.30
2015,02,22,16,55,10.20
2015,02,22,16,56,10.20
2015,02,22,16,57,10.20
2015,02,22,16,58,10.10
2015,02,22,16,59,10.10
2015,02,22,17,00,10.10
2015,02,22,17,01,10.10
2015,02,22,17,02,10.00
2015,02,22,17,03,9.90
2015,02,22,17,04,9.90
2015,02,22,17,05,9.90
2015,02,22,17,06,9.90
2015,02,22,17,07,9.90
2015,02,22,17,08,9.90
2015,02,22,17,09,9.90
2015,02,22,17,10,9.90
2015,02,22,17,11,9.80
2015,02,22,17,12,9.80
2015,02,22,17,13,9.80
2015,02,22,17,14,9.80
2015,02,22,17,15,9.80
2015,02,22,17,16,9.70
2015,02,22,17,17,9.70
2015,02,22,17,18,9.70
2015,02,22,17,19,9.70
2015,02,22,17,20,9.70
2015,02,22,17,21,9.70
2015,02,22,17,22,9.70
2015,02,22,17,23,9.70
2015,02,22,17,24,9.70
2015,02,22,17,25,9.70
2015,02,22,17,26,9.70
2015,02,22,17,27,9.70
2015,02,22,17,28,9.70
2015,02,22,17,29,9.70
2015,02,22,17,30,9.70
2015,02,22,17,31,9.70
2015,02,22,17,32,9.70
2015,02,22,17,33,9.70
2015,02,22,17,34,9.70
2015,02,22,17,35,9.70
2015,02,22,17,36,9.70
2015,02,22,17,37,9.70
2015,02,22,17,38,9.80
2015,02,22,17,39,9.80
2015,02,22,17,40,9.80
2015,02,22,17,41,9.80
2015,02,22,17,42,9.80
2015,02,22,17,43,9.80
2015,02,22,17,44,9.80
2015,02,22,17,45,9.80
2015,02,22,17,46,9.80
2015,02,22,17,47,9.80
2015,02,22,17,48,9.70
2015,02,22,17,49,9.80
2015,02,22,17,50,9.80
2015,02,22,17,51,9.70
2015,02,22,17,52,9.70
2015,02,22,17,53,9.70
2015,02,22,17,54,9.70
2015,02,22,17,55,9.70
2015,02,22,17,56,9.70
2015,02,22,17,57,9.70